Date_and_time,latitude,longitude,wind_speed,RelWindDirFrom,WindDirFrom,air_pressure,air_temperature,relative_humidity,Temp,platform_speed_wrt_ground,air_pressure_at_mean_sea_level,platform_orientation
2019-03-08 23:50,50.6304383333333,-96.9807716666667,9.7,14.0,174,985.00,-7.5,82,0.68,0.0,1013.55,142.0
2019-03-09 00:00,50.63041,-96.98076,9.5,13.1,171,984.89,-7.5,82,0.68,0.0,1013.43,147.5
2019-03-09 00:00,50.6304116666667,-96.9807616666667,8.5,8.5,169,984.87,-7.6,83,0.68,0.0,1013.41,119.2
2019-03-09 00:10,50.6304283333333,-96.9807716666667,9.2,12.4,175,984.97,-7.7,83,0.68,0.0,1013.52,119.2
2019-03-09 00:20,50.630435,-96.98077,7.7,9.2,161,985.02,-8.2,85,0.69,0.0,1013.59,119.2
2019-03-09 00:30,50.6304366666667,-96.9807683333333,8.5,9.8,151,984.93,-9.1,90,0.68,0.0,1013.54,119.2
2019-03-09 00:40,50.630435,-96.980765,9.1,9.9,147,984.79,-9.6,92,0.68,0.0,1013.44,119.2
2019-03-09 00:50,50.6304366666667,-96.9807683333333,9.2,10.1,151,984.72,-9.8,93,0.65,0.0,1013.39,119.2
2019-03-09 01:00,50.6304366666667,-96.98077,8.8,9.5,156,984.70,-10.1,94,0.63,0.0,1013.39,55.2
2019-03-09 01:10,50.6304333333333,-96.9807866666667,8.0,9.7,161,984.83,-10.4,95,0.62,0.0,1013.55,55.2
2019-03-09 01:20,50.630435,-96.98079,7.2,8.6,165,984.78,-10.5,96,0.61,0.0,1013.51,55.2
2019-03-09 01:30,50.6303916666667,-96.980765,6.0,7.1,162,984.78,-10.5,97,0.60,0.0,1013.52,55.2
2019-03-09 01:40,50.6304433333333,-96.98077,5.7,6.5,160,984.80,-10.6,97,0.60,0.0,1013.55,55.2
2019-03-09 01:50,50.6304466666667,-96.9807716666667,6.1,7.0,159,984.78,-10.6,98,0.60,0.0,1013.53,55.2
2019-03-09 02:00,50.6304483333333,-96.98077,6.3,7.1,160,984.71,-10.6,98,0.62,0.0,1013.46,355.3
2019-03-09 02:10,50.630445,-96.9807716666667,6.5,7.3,166,984.64,-10.6,99,0.65,0.0,1013.41,355.3
2019-03-09 02:20,50.6304416666667,-96.9807716666667,6.8,8.2,164,984.51,-10.5,99,0.67,0.0,1013.33,355.3
2019-03-09 02:30,50.6304333333333,-96.9807766666667,8.1,8.9,164,984.38,-10.6,99,0.68,0.0,1013.22,355.3
2019-03-09 02:40,50.6304333333333,-96.9807716666667,7.7,9.1,163,984.26,-10.6,99,0.69,0.0,1013.12,355.3
2019-03-09 02:50,50.6304266666667,-96.9807783333333,8.4,9.2,164,984.20,-10.9,99,0.70,0.0,1013.08,355.3
2019-03-09 03:00,50.6304383333333,-96.980795,7.8,9.3,170,984.18,-10.7,99,0.71,0.0,1013.07,315.5
2019-03-09 03:10,50.6304166666667,-96.9807716666667,8.2,9.4,173,984.20,-10.4,99,0.71,0.0,1013.08,315.5
2019-03-09 03:20,50.6304166666667,-96.9807733333333,8.3,9.6,173,984.26,-10.2,99,0.71,0.0,1013.13,315.5
2019-03-09 03:30,50.63042,-96.9807716666667,8.6,10.4,169,984.27,-10.0,99,0.71,0.0,1013.13,315.5
2019-03-09 03:40,50.63042,-96.980775,8.4,10.4,166,984.19,-10.0,99,0.71,0.0,1013.05,315.5
2019-03-09 03:50,50.63043,-96.9807883333333,8.0,9.6,176,984.39,-9.8,99,0.72,0.0,1013.25,315.5
2019-03-09 04:00,50.6304333333333,-96.9807833333333,7.8,9.8,180,984.57,-9.6,99,0.72,0.0,1013.41,248.5
2019-03-09 04:10,50.6304333333333,-96.9807833333333,8.1,11.4,186,984.49,-9.3,99,0.72,0.0,1013.32,248.5
2019-03-09 04:20,50.6304333333333,-96.9807816666667,9.0,11.3,183,984.22,-9.3,99,0.72,0.0,1013.04,248.5
2019-03-09 04:30,50.6304566666667,-96.9807716666667,7.1,9.6,174,984.23,-9.9,99,0.72,0.0,1013.09,248.5
2019-03-09 04:40,50.6304116666667,-96.9807683333333,6.7,8.6,167,984.30,-10.6,99,0.73,0.0,1013.21,248.5
2019-03-09 04:50,50.6304433333333,-96.980785,6.4,7.7,156,984.21,-11.0,99,0.73,0.0,1013.14,248.5
2019-03-09 05:00,50.6304366666667,-96.980785,6.2,7.6,151,984.06,-11.6,99,0.72,0.0,1012.99,229.4
2019-03-09 05:10,50.630435,-96.9807833333333,7.2,8.6,150,983.88,-12.1,99,0.73,0.0,1012.83,229.4
2019-03-09 05:20,50.63042,-96.9807783333333,8.0,9.1,155,983.88,-12.8,99,0.73,0.0,1012.86,229.4
2019-03-09 05:30,50.6304416666667,-96.98076,7.8,8.8,162,983.90,-13.1,99,0.73,0.0,1012.89,229.4
2019-03-09 05:40,50.630435,-96.980775,8.1,8.9,158,983.82,-13.4,99,0.74,0.0,1012.81,229.4
2019-03-09 05:50,50.6304316666667,-96.98077,9.1,10.1,161,984.00,-13.6,99,0.75,0.0,1013.01,229.4
2019-03-09 06:00,50.6304333333333,-96.98077,9.2,9.7,161,984.01,-13.8,99,0.74,0.0,1013.01,116.7
2019-03-09 06:10,50.6304333333333,-96.9807716666667,8.5,9.5,163,984.01,-13.6,99,0.72,0.0,1013.00,116.7
2019-03-09 06:20,50.6304333333333,-96.9807733333333,7.9,8.8,162,983.96,-13.1,99,0.72,0.0,1012.95,116.7
2019-03-09 06:30,50.6304316666667,-96.9807733333333,8.8,9.3,161,983.90,-12.8,99,0.72,0.0,1012.91,116.7
2019-03-09 06:40,50.6304166666667,-96.98079,8.9,10.1,162,983.86,-13.0,99,0.71,0.0,1012.90,116.7
2019-03-09 06:50,50.63043,-96.9807866666667,8.8,9.8,160,983.75,-13.1,99,0.72,0.0,1012.83,116.7
2019-03-09 07:00,50.630425,-96.98078,10.4,12.0,162,983.87,-13.0,99,0.71,0.0,1012.97,142.0
2019-03-09 07:10,50.63043,-96.9807816666667,10.9,12.4,166,983.98,-12.5,99,0.71,0.0,1013.10,142.0
2019-03-09 07:20,50.63043,-96.9807866666667,8.9,10.1,167,984.04,-12.0,99,0.71,0.0,1013.15,142.0
2019-03-09 07:30,50.6304316666667,-96.9807866666667,7.8,8.9,165,983.95,-11.9,99,0.71,0.0,1013.06,142.0
2019-03-09 07:40,50.6304316666667,-96.980785,7.7,8.5,156,983.95,-12.0,99,0.72,0.0,1013.09,142.0
2019-03-09 07:50,50.6304316666667,-96.9807866666667,7.3,8.2,160,983.89,-12.0,99,0.71,0.0,1013.03,142.0
2019-03-09 08:00,50.6304316666667,-96.980785,7.7,9.3,155,983.78,-11.5,99,0.70,0.0,1012.88,142.0
2019-03-09 08:10,50.6304233333333,-96.9807816666667,8.5,10.5,156,983.78,-11.5,99,0.68,0.0,1012.86,142.0
2019-03-09 08:20,50.6304466666667,-96.9807683333333,7.2,8.4,157,983.82,-11.7,99,0.69,0.0,1012.89,142.0
2019-03-09 08:30,50.6304433333333,-96.9807783333333,7.1,8.0,156,983.76,-11.8,99,0.70,0.0,1012.85,142.0
2019-03-09 08:40,50.6304433333333,-96.9807766666667,6.9,7.7,159,983.67,-11.7,99,0.71,0.0,1012.75,142.0
2019-03-09 08:50,50.6304466666667,-96.9807766666667,6.9,7.6,165,983.62,-11.5,99,0.71,0.0,1012.68,142.0
2019-03-09 09:00,50.630445,-96.9807783333333,7.2,8.6,163,983.54,-11.3,99,0.71,0.0,1012.56,304.8
2019-03-09 09:10,50.6304416666667,-96.980775,7.4,8.4,164,983.47,-11.1,99,0.71,0.0,1012.45,304.8
2019-03-09 09:20,50.63043,-96.9807616666667,7.6,8.6,162,983.29,-10.8,99,0.71,0.0,1012.24,304.8
2019-03-09 09:30,50.6304283333333,-96.98077,8.3,9.7,160,983.26,-10.5,99,0.72,0.0,1012.21,304.8
2019-03-09 09:40,50.63043,-96.9807683333333,8.9,11.2,167,983.27,-10.0,99,0.72,0.0,1012.18,304.8
2019-03-09 09:50,50.6304283333333,-96.9807716666667,10.1,14.3,181,983.22,-8.7,100,0.72,0.0,1012.04,304.8
2019-03-09 10:00,50.6304283333333,-96.9807716666667,11.3,15.1,179,983.17,-8.1,100,0.72,0.0,1011.95,90.0
2019-03-09 10:10,50.6304283333333,-96.9807733333333,12.0,16.1,180,983.04,-7.9,100,0.73,0.0,1011.81,90.0
2019-03-09 10:20,50.6304283333333,-96.9807733333333,11.9,14.6,183,982.97,-7.8,100,0.73,0.0,1011.74,90.0
2019-03-09 10:30,50.6304283333333,-96.9807716666667,11.6,15.0,186,982.83,-7.6,100,0.72,0.0,1011.58,90.0
2019-03-09 10:40,50.6304533333333,-96.9807883333333,11.2,15.0,178,982.58,-7.5,100,0.73,0.0,1011.30,90.0
2019-03-09 10:50,50.6304366666667,-96.98077,11.3,15.8,171,982.38,-7.4,100,0.72,0.0,1011.08,90.0
2019-03-09 11:00,50.6304316666667,-96.9807616666667,11.7,15.2,173,982.31,-7.3,100,0.71,0.0,1010.99,90.0
2019-03-09 11:10,50.6304366666667,-96.980765,9.2,11.7,166,982.48,-7.9,100,0.73,0.0,1011.19,90.0
2019-03-09 11:20,50.63044,-96.980765,10.0,11.8,153,982.31,-8.6,100,0.74,0.0,1011.03,90.0
2019-03-09 11:30,50.6304366666667,-96.980765,11.3,12.6,149,982.17,-9.0,100,0.72,0.0,1010.89,90.0
2019-03-09 11:40,50.6304366666667,-96.9807666666667,10.6,12.2,151,982.01,-8.9,100,0.72,0.0,1010.65,90.0
2019-03-09 11:50,50.6304383333333,-96.9807666666667,10.5,11.8,158,981.98,-8.9,100,0.73,0.0,1010.58,90.0
2019-03-09 12:00,50.6304383333333,-96.9807683333333,9.9,11.5,161,982.03,-9.1,100,0.72,0.0,1010.63,90.0
2019-03-09 12:10,50.6304183333333,-96.980775,9.3,11.0,161,981.88,-9.0,100,0.72,0.0,1010.46,90.0
2019-03-09 12:20,50.6304616666667,-96.980785,7.7,9.1,165,981.89,-9.2,100,0.72,0.0,1010.47,90.0
2019-03-09 12:30,50.6304283333333,-96.9807816666667,7.7,8.5,161,981.80,-9.4,100,0.72,0.0,1010.39,90.0
2019-03-09 12:40,50.6304366666667,-96.9807733333333,7.6,8.7,156,981.69,-9.5,100,0.72,0.0,1010.28,90.0
2019-03-09 12:50,50.6304433333333,-96.9807716666667,7.4,8.4,160,981.72,-9.4,100,0.72,0.0,1010.30,90.0
2019-03-09 13:00,50.630445,-96.9807683333333,7.7,9.3,163,981.76,-9.0,100,0.72,0.0,1010.35,23.5
2019-03-09 13:10,50.630445,-96.9807683333333,9.3,11.0,160,981.66,-8.2,100,0.73,0.0,1010.24,23.5
2019-03-09 13:20,50.630445,-96.9807666666667,9.7,11.4,159,981.64,-8.0,100,0.74,0.0,1010.23,23.5
2019-03-09 13:30,50.630445,-96.9807666666667,10.3,13.1,163,981.87,-8.0,100,0.72,0.0,1010.46,23.5
2019-03-09 13:40,50.6304483333333,-96.9807766666667,11.2,13.3,166,981.94,-7.3,100,0.72,0.0,1010.50,23.5
2019-03-09 13:50,50.6304616666667,-96.9807583333333,11.9,14.6,163,981.93,-6.9,100,0.72,0.0,1010.47,23.5
2019-03-09 14:00,50.6304516666667,-96.98076,11.8,15.3,165,981.84,-6.5,100,0.73,0.0,1010.35,360.0
2019-03-09 14:10,50.6304483333333,-96.9807616666667,12.4,15.8,167,981.76,-6.2,100,0.72,0.0,1010.26,360.0
2019-03-09 14:20,50.63045,-96.9807666666667,10.7,13.3,170,981.69,-6.0,100,0.73,0.0,1010.19,360.0
2019-03-09 14:30,50.63045,-96.980765,10.8,13.6,177,981.74,-5.7,99,0.73,0.0,1010.24,360.0
2019-03-09 14:40,50.63045,-96.980765,12.5,17.6,182,981.71,-5.4,99,0.72,0.0,1010.18,360.0
2019-03-09 14:50,50.63045,-96.9807666666667,12.3,16.8,184,981.55,-5.3,99,0.72,0.0,1009.99,360.0
2019-03-09 15:00,50.6304483333333,-96.9807666666667,13.0,18.0,183,981.41,-5.3,99,0.71,0.0,1009.80,38.0
2019-03-09 15:10,50.63044,-96.980765,14.6,18.7,180,981.22,-5.3,99,0.71,0.0,1009.59,38.0
2019-03-09 15:20,50.6304483333333,-96.9807683333333,15.6,20.6,177,981.00,-5.2,99,0.72,0.0,1009.36,38.0
2019-03-09 15:30,50.6304433333333,-96.9807683333333,14.9,18.7,181,981.08,-5.2,99,0.72,0.0,1009.41,38.0
2019-03-09 15:40,50.6304433333333,-96.98077,15.5,19.7,180,981.01,-5.2,99,0.73,0.0,1009.31,38.0
2019-03-09 15:50,50.63044,-96.9807716666667,14.5,19.3,183,981.02,-5.2,99,0.73,0.0,1009.31,38.0
2019-03-09 16:00,50.6304416666667,-96.9807716666667,12.8,17.3,187,981.00,-5.2,99,0.74,0.0,1009.27,270.0
2019-03-09 16:10,50.6304433333333,-96.9807733333333,11.1,14.7,191,981.02,-5.1,99,0.74,0.0,1009.27,270.0
2019-03-09 16:20,50.630445,-96.9807733333333,9.4,13.3,192,980.96,-4.9,99,0.73,0.0,1009.19,270.0
2019-03-09 16:30,50.630445,-96.9807733333333,9.8,14.1,194,980.82,-4.8,99,0.72,0.0,1009.02,270.0
2019-03-09 16:40,50.630445,-96.9807733333333,9.3,12.3,190,980.64,-4.8,99,0.72,0.0,1008.82,270.0
2019-03-09 16:50,50.630445,-96.9807733333333,10.3,13.8,181,980.44,-4.7,99,0.72,0.0,1008.61,270.0
2019-03-09 17:00,50.6304433333333,-96.9807733333333,12.2,15.7,182,980.38,-4.3,99,0.72,0.0,1008.53,192.6
2019-03-09 17:10,50.630445,-96.9807733333333,12.2,15.7,179,980.29,-4.0,98,0.72,0.0,1008.43,192.6
2019-03-09 17:20,50.630445,-96.980775,11.5,14.8,180,980.29,-3.8,97,0.72,0.0,1008.41,192.6
2019-03-09 17:30,50.6304483333333,-96.9807783333333,11.7,14.7,183,980.29,-3.7,96,0.74,0.0,1008.40,192.6
2019-03-09 17:40,50.6304416666667,-96.9807716666667,10.7,14.9,184,980.37,-3.5,95,0.74,0.0,1008.48,192.6
2019-03-09 17:50,50.63044,-96.98077,10.4,13.4,187,980.47,-3.1,92,0.72,0.0,1008.55,192.6
2019-03-09 18:00,50.6304383333333,-96.98077,11.0,13.0,187,980.52,-3.2,91,0.72,0.0,1008.61,142.0
2019-03-09 18:10,50.6304366666667,-96.9808366666667,10.2,13.0,176,980.50,-3.4,94,0.72,0.0,1008.59,142.0
2019-03-09 18:20,50.6304183333333,-96.9807783333333,11.0,12.8,172,980.41,-3.6,95,0.72,0.0,1008.50,142.0
2019-03-09 18:30,50.6304233333333,-96.9807816666667,10.3,12.0,174,980.36,-3.6,94,0.72,0.0,1008.44,142.0
2019-03-09 18:40,50.6304166666667,-96.9808016666667,8.7,12.1,175,980.45,-3.3,93,0.71,0.0,1008.52,142.0
2019-03-09 18:50,50.6304383333333,-96.98077,8.2,10.9,176,980.37,-2.9,92,0.71,0.0,1008.40,142.0
2019-03-09 19:00,50.630435,-96.980775,7.5,9.7,174,980.40,-2.7,89,0.71,0.0,1008.40,142.0
2019-03-09 19:10,50.6304366666667,-96.9807766666667,7.4,9.3,178,980.38,-2.4,87,0.70,0.0,1008.35,142.0
2019-03-09 19:20,50.6304366666667,-96.9807816666667,6.9,10.0,176,980.31,-2.1,85,0.69,0.0,1008.25,142.0
2019-03-09 19:30,50.63042,-96.98076,6.2,8.2,176,980.39,-1.8,82,0.67,0.0,1008.31,142.0
2019-03-09 19:40,50.630435,-96.9807716666667,6.1,8.1,170,980.41,-1.8,83,0.66,0.0,1008.32,142.0
2019-03-09 19:50,50.63046,-96.980755,6.4,8.2,173,980.39,-2.0,83,0.66,0.0,1008.31,142.0
2019-03-09 20:00,50.63045,-96.98076,6.1,7.3,172,980.37,-1.8,81,0.67,0.0,1008.29,12.6
2019-03-09 20:10,50.630435,-96.9807916666667,5.1,6.9,169,980.25,-1.7,80,0.68,0.0,1008.17,12.6
2019-03-09 20:20,50.6304366666667,-96.9807766666667,4.5,6.8,208,980.03,-1.2,71,0.67,0.0,1007.92,12.6
2019-03-09 20:30,50.6304416666667,-96.9807766666667,3.5,7.2,239,979.87,-0.7,64,0.67,0.0,1007.71,12.6
2019-03-09 20:40,50.63042,-96.98077,3.4,6.3,267,979.82,-0.6,61,0.68,0.0,1007.64,12.6
2019-03-09 20:50,50.63043,-96.9807683333333,2.6,4.8,266,979.95,-0.3,59,0.68,0.0,1007.75,12.6
2019-03-09 21:00,50.6304316666667,-96.9807666666667,2.6,7.5,220,980.07,0.1,58,0.68,0.0,1007.83,360.0
2019-03-09 21:10,50.6304333333333,-96.98077,4.9,6.4,229,980.16,-0.6,58,0.70,0.0,1007.94,360.0
2019-03-09 21:20,50.630435,-96.9807716666667,5.9,8.1,247,980.12,-0.7,57,0.72,0.0,1007.89,360.0
2019-03-09 21:30,50.630435,-96.9807716666667,5.0,7.3,248,979.96,-0.7,57,0.73,0.0,1007.73,360.0
2019-03-09 21:40,50.630435,-96.9807716666667,4.7,7.4,241,979.92,-0.6,57,0.74,0.0,1007.69,360.0
2019-03-09 21:50,50.630435,-96.9807733333333,4.2,6.9,329,979.87,-0.5,60,0.76,0.0,1007.62,360.0
2019-03-09 22:00,50.630435,-96.980775,7.0,8.6,358,980.01,-1.3,69,0.77,0.0,1007.81,0.0
2019-03-09 22:10,50.6304633333333,-96.980785,7.5,9.8,359,980.06,-1.8,73,0.78,0.0,1007.86,0.0
2019-03-09 22:20,50.6304466666667,-96.9807716666667,8.0,9.9,359,980.01,-2.3,81,0.78,0.0,1007.81,0.0
2019-03-09 22:30,50.6304266666667,-96.9807666666667,8.2,10.2,1,980.00,-2.6,80,0.77,0.0,1007.80,0.0
2019-03-09 22:40,50.6304366666667,-96.9807716666667,8.1,9.5,4,980.01,-2.9,82,0.77,0.0,1007.82,0.0
2019-03-09 22:50,50.630435,-96.98077,8.6,10.2,5,980.06,-3.2,83,0.78,0.0,1007.86,0.0
2019-03-09 23:00,50.6304366666667,-96.9807683333333,7.9,10.2,6,980.16,-3.3,81,0.79,0.0,1008.01,360.0
2019-03-09 23:10,50.6304366666667,-96.980765,6.8,8.1,11,980.17,-3.4,78,0.79,0.0,1008.03,360.0
2019-03-09 23:20,50.6304383333333,-96.980765,6.1,7.3,9,980.22,-3.7,75,0.80,0.0,1008.10,360.0
2019-03-09 23:30,50.63044,-96.980765,4.4,7.9,323,980.29,-3.5,60,0.81,0.0,1008.15,360.0
